Commit Graph

  • 9f3677b694 updates Andras Bacsai 2022-11-03 14:59:37 +01:00
  • e6024c997f debug more Andras Bacsai 2022-11-03 14:41:58 +01:00
  • 3cb83e2286 debug Andras Bacsai 2022-11-03 14:28:53 +01:00
  • 780d03e5e1 fixes Andras Bacsai 2022-11-03 14:16:51 +01:00
  • 214114e6ce fixes Andras Bacsai 2022-11-03 14:09:06 +01:00
  • 274d3fe679 fix wh again Andras Bacsai 2022-11-03 13:50:04 +01:00
  • 0ecf86d8a3 remove debug Andras Bacsai 2022-11-03 13:47:49 +01:00
  • c2d4390a72 fix wh Andras Bacsai 2022-11-03 13:46:51 +01:00
  • 7627d59d43 debug Andras Bacsai 2022-11-03 13:37:48 +01:00
  • 71ce9a6b37 fix: pathprefix Andras Bacsai 2022-11-03 13:28:58 +01:00
  • 232018c925 fix Andras Bacsai 2022-11-03 11:40:55 +01:00
  • 9dfbbe58ff fix: toast, rde, webhooks Andras Bacsai 2022-11-03 11:32:18 +01:00
  • fa9738a2e0 fix: tooltip Andras Bacsai 2022-11-03 10:13:36 +01:00
  • 94ecbc5921 fix: app logs view Andras Bacsai 2022-11-03 09:43:41 +01:00
  • 3c68d317d7 fix: traefik proxy q 10s Andras Bacsai 2022-11-03 09:43:34 +01:00
  • 56d4edfb9d fix: toast Andras Bacsai 2022-11-03 09:43:23 +01:00
  • c6c037ff17 fixes Andras Bacsai 2022-11-03 09:31:01 +01:00
  • 44feba4d89 fix branches Andras Bacsai 2022-11-03 08:14:57 +01:00
  • 962f2c7380 Merge pull request #682 from Huskehhh/main Andras Bacsai 2022-11-02 22:49:43 +01:00
  • 22007426aa fix migration Andras Bacsai 2022-11-02 22:44:46 +01:00
  • 008e9a92d3 fixes Andras Bacsai 2022-11-02 22:32:09 +01:00
  • 41139ee2ab fixes Andras Bacsai 2022-11-02 22:11:32 +01:00
  • 845c40d23c fixes Andras Bacsai 2022-11-02 21:31:16 +01:00
  • a22f26c4c8 fixes Andras Bacsai 2022-11-02 16:03:27 +01:00
  • 99ff020f56 fix Andras Bacsai 2022-11-02 15:37:51 +01:00
  • f863b42b71 fix: heroku bp Andras Bacsai 2022-11-02 15:36:23 +01:00
  • 2e713b459e fixes Andras Bacsai 2022-11-02 15:19:20 +01:00
  • 923241ce1e fixes Andras Bacsai 2022-11-02 10:08:22 +01:00
  • 3a8929b9d7 fix Andras Bacsai 2022-11-02 09:58:14 +01:00
  • eb92d39d40 replace ws with socketio Andras Bacsai 2022-11-02 09:49:21 +01:00
  • bdc62a007e fixes Andras Bacsai 2022-10-28 20:30:34 +00:00
  • 4b35db6291 wss Andras Bacsai 2022-10-28 14:51:22 +00:00
  • c8282b215d use window location for ws in prod Andras Bacsai 2022-10-28 14:29:21 +00:00
  • c123669828 test ws Andras Bacsai 2022-10-28 15:50:57 +02:00
  • 781fd0a1cd fixes Andras Bacsai 2022-10-28 12:03:07 +02:00
  • 9bd99605fb stop wp ftp on service stop Andras Bacsai 2022-10-28 12:02:22 +02:00
  • dc626bd4f0 fixes Andras Bacsai 2022-10-28 11:54:03 +02:00
  • aa27aeafa1 fix fqdn check Andras Bacsai 2022-10-28 09:15:03 +02:00
  • cdb25cd0e9 remove console.log Andras Bacsai 2022-10-27 20:06:21 +00:00
  • dc2d15fd9c fix Andras Bacsai 2022-10-27 20:05:02 +00:00
  • 55cb788380 fixes Andras Bacsai 2022-10-27 19:21:33 +00:00
  • 0f3b7fe643 fixes Andras Bacsai 2022-10-27 18:55:21 +00:00
  • 4b812350a8 fix migrations Andras Bacsai 2022-10-27 13:37:45 +02:00
  • aec37164de debug Andras Bacsai 2022-10-27 13:18:24 +02:00
  • dec02bd8db update pnpm lock Andras Bacsai 2022-10-27 12:06:22 +02:00
  • 1bd6a8ed9e update dockerfile Andras Bacsai 2022-10-27 12:06:12 +02:00
  • 2030f714fa cleanup stuffs Andras Bacsai 2022-10-27 09:55:32 +02:00
  • 4416646954 package updates + tags selector Andras Bacsai 2022-10-26 15:50:10 +02:00
  • 52ba9dc02a Update devTemplates.yaml Andras Bacsai 2022-10-26 15:44:29 +02:00
  • dad3d42d14 fixes Andras Bacsai 2022-10-26 14:12:27 +02:00
  • 0d12f3043b fix + cleanup Andras Bacsai 2022-10-26 13:44:32 +02:00
  • 1225786fc0 cleanup + fixes Andras Bacsai 2022-10-26 11:21:55 +02:00
  • 71496d5229 cleanup + arm support Andras Bacsai 2022-10-26 10:49:30 +02:00
  • eb0aa20fe1 fixes Andras Bacsai 2022-10-26 10:27:33 +02:00
  • c34de3d0a3 fixes Andras Bacsai 2022-10-26 10:12:17 +02:00
  • 54e0a9fc28 fix Andras Bacsai 2022-10-26 09:35:56 +02:00
  • 4bcd034b3d fixes Andras Bacsai 2022-10-26 09:27:43 +02:00
  • 111bd29cc8 updates Andras Bacsai 2022-10-25 22:43:31 +02:00
  • e038865693 feature: add default to latest commit and support for gitlab ThallesP 2022-10-25 13:51:10 -03:00
  • dfd29dc37a feature: initial support for specific git commit ThallesP 2022-10-25 13:26:03 -03:00
  • b0fcd23ca6 template update Andras Bacsai 2022-10-25 15:59:04 +02:00
  • f80b1d31f5 fixes, dev templates, etc Andras Bacsai 2022-10-25 15:12:40 +02:00
  • 811ea5b92a fixes Andras Bacsai 2022-10-24 22:54:19 +02:00
  • f9dfbd5800 fix Andras Bacsai 2022-10-24 21:54:33 +02:00
  • 88f1c36929 fixes and remote tempaltes Andras Bacsai 2022-10-24 14:23:34 +02:00
  • 8bbe771f5b fake service in dev Andras Bacsai 2022-10-24 13:12:31 +02:00
  • c578fa63e5 updates Andras Bacsai 2022-10-24 13:10:05 +02:00
  • 4448b86b93 fix: Accept logged and not logged user in /base The Mark 2022-10-23 13:31:24 -04:00
  • 17badf95dc fix Andras Bacsai 2022-10-21 22:34:27 +02:00
  • a267ee40d2 asd Andras Bacsai 2022-10-21 22:15:50 +02:00
  • 8ef645b3c2 fix Andras Bacsai 2022-10-21 22:13:29 +02:00
  • 35625b22f5 hm Andras Bacsai 2022-10-21 22:05:05 +02:00
  • 221dcefd6c fix Andras Bacsai 2022-10-21 21:24:52 +02:00
  • 9c74a9c1db fixes Andras Bacsai 2022-10-21 21:19:30 +02:00
  • 55fc3920fc updates Andras Bacsai 2022-10-21 20:54:33 +02:00
  • 5d60b5eb8b saving things Andras Bacsai 2022-10-21 15:51:32 +02:00
  • 049d5166e8 add template.json Andras Bacsai 2022-10-21 11:30:16 +02:00
  • f4019db3d1 fixes Andras Bacsai 2022-10-20 16:06:33 +02:00
  • 9f3732d35b fix: service logs Andras Bacsai 2022-10-20 10:42:47 +02:00
  • b4f17ac3c6 add weblate Andras Bacsai 2022-10-20 10:03:23 +02:00
  • 978e35d335 add searxng Andras Bacsai 2022-10-20 09:44:08 +02:00
  • 22cbbec960 add searxng Andras Bacsai 2022-10-20 09:18:13 +02:00
  • 21f3a70788 add glitchtip Andras Bacsai 2022-10-19 14:59:38 +02:00
  • b4c6f80e1c add hasura Andras Bacsai 2022-10-19 14:15:48 +02:00
  • e1198c42eb add hasura Andras Bacsai 2022-10-19 13:14:39 +02:00
  • e09fdbcef0 add umami + hashedpws Andras Bacsai 2022-10-19 12:00:43 +02:00
  • b708e79929 add umami Andras Bacsai 2022-10-19 11:26:27 +02:00
  • cbaecff3b7 meilisearch Andras Bacsai 2022-10-19 10:55:16 +02:00
  • 4f7d2630af meilisearch Andras Bacsai 2022-10-19 10:29:08 +02:00
  • 92d3860240 ghost Andras Bacsai 2022-10-19 10:24:53 +02:00
  • 3757d5da9f ghost Andras Bacsai 2022-10-19 10:07:04 +02:00
  • 1d38a885bb add wordpress Andras Bacsai 2022-10-18 15:17:59 +02:00
  • dbd767e8f1 wordpress Andras Bacsai 2022-10-18 15:01:18 +02:00
  • 8b83c38127 vscode Andras Bacsai 2022-10-18 14:45:30 +02:00
  • f1ea01e709 vscodeserver + minio Andras Bacsai 2022-10-18 14:34:10 +02:00
  • 12a1aeb0f8 add minio Andras Bacsai 2022-10-18 14:12:33 +02:00
  • 413150012f fix Andras Bacsai 2022-10-18 13:57:48 +02:00
  • 8ef5604ce8 updates Andras Bacsai 2022-10-18 13:52:47 +02:00
  • 42e50c800b fix Andras Bacsai 2022-10-18 12:51:53 +02:00
  • 8fbd08003c fixes Andras Bacsai 2022-10-18 12:43:35 +02:00